Location: Arcusa
(42.3167°N, 0.0833°W)
Time: 18:43:40
(UTC+00:00)

USA 215 - Pass Details

Date: 25 January 2020
Orbit: 1101 x 1107 km, 123.0° (Epoch: 06 February)

Event Time Altitude Azimuth Distance (km) Brightness Sun altitude
Rises 05:48:27 0° 128° (SE) 3,913 7.3 -17.1°
Reaches altitude 10° 05:50:55 10° 128° (SE) 2,957 6.5 -16.6°
Maximum altitude 05:57:28 88° 42° (NE) 1,109 3.3 -15.4°
Enters shadow 06:03:10 15° 312° (NW) 2,634 4.7 -14.4°
